Location: Ch�risy
(50.2331°N, 2.9131°E)
Time: 23:52:51
(UTC+00:00)

Meteor 2-10 Rocket - Pass Details

Date: 17 January 2021
Orbit: 733 x 885 km, 81.2° (Epoch: 01 March)

Event Time Altitude Azimuth Distance (km) Brightness Sun altitude
Rises 17:55:23 0° 349° (N) 3,451 6.9 -15.2°
Reaches altitude 10° 17:57:54 10° 353° (N) 2,491 6.1 -15.6°
Maximum altitude 18:03:29 61° 74° (ENE) 939 3.6 -16.4°
Drops below altitude 10° 18:08:49 10° 154° (SSE) 2,374 5.9 -17.3°
Sets 18:11:10 0° 158° (SSE) 3,276 6.7 -17.6°
